| time (UTC) | temp F | wind direction | speed knots | gust knots | rain 1hr in | rain 24hr in | rain mn in | humidity % | barometer mb |
| 20260507020336 | 82 | 268 | 1.7 | 5.2 | 0.00 | 0.00 | 0.00 | 20 | 1010.3 |
| 20260507015329 | 83 | 224 | 0.9 | 6.1 | 0.00 | 0.00 | 0.00 | 20 | 1010.3 |
| 20260507014336 | 83 | 237 | 1.7 | 5.2 | 0.00 | 0.00 | 0.00 | 20 | 1010.2 |
| 20260507013344 | 84 | 248 | 0.0 | 8.7 | 0.00 | 0.00 | 0.00 | 20 | 1010.1 |
| 20260507012332 | 84 | 270 | 1.7 | 7.8 | 0.00 | 0.00 | 0.00 | 19 | 1010.1 |
| 20260507011345 | 85 | 255 | 0.0 | 6.1 | 0.00 | 0.00 | 0.00 | 19 | 1010.1 |
| 20260507010332 | 86 | 211 | 2.6 | 6.1 | 0.00 | 0.00 | 0.00 | 19 | 1010.1 |
| 20260507005339 | 86 | 291 | 1.7 | 6.1 | 0.00 | 0.00 | 0.00 | 18 | 1010.2 |
| 20260507004328 | 85 | 284 | 0.9 | 6.1 | 0.00 | 0.00 | 0.00 | 19 | 1010.1 |
| 20260507003340 | 85 | 275 | 1.7 | 6.1 | 0.00 | 0.00 | 0.00 | 19 | 1010.1 |
| 20260507002328 | 86 | 273 | 4.3 | 7.0 | 0.00 | 0.00 | 0.00 | 18 | 1010.1 |
| 20260507001335 | 86 | 217 | 0.0 | 6.1 | 0.00 | 0.00 | 0.00 | 18 | 1010.1 |
| 20260507000405 | 86 | 257 | 0.0 | 7.8 | 0.00 | 0.00 | 0.00 | 18 | 1010.1 |
| 20260506235352 | 86 | 182 | 4.3 | 9.6 | 0.00 | 0.00 | 0.00 | 18 | 1010.0 |
| 20260506234339 | 86 | 276 | 1.7 | 6.1 | 0.00 | 0.00 | 0.00 | 18 | 1010.2 |
| 20260506233327 | 86 | 88 | 0.0 | 6.1 | 0.00 | 0.00 | 0.00 | 18 | 1010.2 |
| 20260506232353 | 86 | 310 | 1.7 | 6.1 | 0.00 | 0.00 | 0.00 | 18 | 1010.3 |
| 20260506231401 | 86 | 273 | 0.0 | 2.6 | 0.00 | 0.00 | 0.00 | 18 | 1010.4 |
| 20260506230331 | 86 | 144 | 0.0 | 6.1 | 0.00 | 0.00 | 0.00 | 18 | 1010.6 |
| 20260506225359 | 86 | 333 | 4.3 | 9.6 | 0.00 | 0.00 | 0.00 | 18 | 1010.7 |
| 20260506224327 | 86 | 360 | 0.0 | 4.3 | 0.00 | 0.00 | 0.00 | 18 | 1010.7 |
| 20260506223334 | 86 | 256 | 0.0 | 4.3 | 0.00 | 0.00 | 0.00 | 18 | 1010.8 |
| 20260506222343 | 86 | 299 | 1.7 | 4.3 | 0.00 | 0.00 | 0.00 | 18 | 1011.0 |
| 20260506221330 | 85 | 260 | 2.6 | 8.7 | 0.00 | 0.00 | 0.00 | 19 | 1011.2 |
| 20260506220338 | 85 | 213 | 0.0 | 7.0 | 0.00 | 0.00 | 0.00 | 18 | 1011.2 |
| 20260506215345 | 85 | 202 | 0.9 | 7.0 | 0.00 | 0.00 | 0.00 | 18 | 1011.3 |
| 20260506214356 | 85 | 9 | 0.0 | 0.0 | 0.00 | 0.00 | 0.00 | 19 | 1011.5 |
| 20260506213343 | 84 | 218 | 0.0 | 0.0 | 0.00 | 0.00 | 0.00 | 19 | 1011.8 |
| 20260506212332 | 83 | 271 | 1.7 | 7.8 | 0.00 | 0.00 | 0.00 | 20 | 1012.1 |
| 20260506211341 | 83 | 15 | 3.5 | 7.8 | 0.00 | 0.00 | 0.00 | 19 | 1012.2 |
| 20260506210331 | 83 | 268 | 2.6 | 4.3 | 0.00 | 0.00 | 0.00 | 20 | 1012.4 |
| 20260506205340 | 83 | 154 | 5.2 | 8.7 | 0.00 | 0.00 | 0.00 | 20 | 1012.4 |
| 20260506204328 | 82 | 267 | 2.6 | 7.8 | 0.00 | 0.00 | 0.00 | 20 | 1012.6 |
| 20260506203336 | 82 | 263 | 3.5 | 6.1 | 0.00 | 0.00 | 0.00 | 21 | 1012.7 |
| 20260506202348 | 81 | 317 | 2.6 | 5.2 | 0.00 | 0.00 | 0.00 | 21 | 1012.8 |
| 20260506201334 | 82 | 196 | 2.6 | 6.1 | 0.00 | 0.00 | 0.00 | 21 | 1012.9 |
| 20260506200342 | 81 | 227 | 0.9 | 5.2 | 0.00 | 0.00 | 0.00 | 22 | 1012.9 |
| 20260506195330 | 81 | 161 | 4.3 | 9.6 | 0.00 | 0.00 | 0.00 | 21 | 1013.0 |
| 20260506194343 | 80 | 188 | 2.6 | 7.8 | 0.00 | 0.00 | 0.00 | 22 | 1013.2 |
| 20260506193332 | 80 | 79 | 2.6 | 7.0 | 0.00 | 0.00 | 0.00 | 22 | 1013.3 |
| 20260506192339 | 80 | 335 | 4.3 | 9.6 | 0.00 | 0.00 | 0.00 | 22 | 1013.4 |
| 20260506191327 | 80 | 348 | 0.9 | 7.8 | 0.00 | 0.00 | 0.00 | 23 | 1013.3 |
| 20260506190339 | 80 | 186 | 3.5 | 8.7 | 0.00 | 0.00 | 0.00 | 23 | 1013.5 |
| 20260506185406 | 80 | 277 | 1.7 | 5.2 | 0.00 | 0.00 | 0.00 | 23 | 1013.7 |
| 20260506184334 | 79 | 208 | 0.0 | 3.5 | 0.00 | 0.00 | 0.00 | 23 | 1013.8 |
| 20260506183342 | 79 | 293 | 0.9 | 7.8 | 0.00 | 0.00 | 0.00 | 23 | 1014.1 |
| 20260506182333 | 78 | 350 | 0.9 | 5.2 | 0.00 | 0.00 | 0.00 | 26 | 1014.1 |
| 20260506181401 | 77 | 248 | 0.9 | 7.0 | 0.00 | 0.00 | 0.00 | 25 | 1014.3 |
| 20260506180328 | 77 | 22 | 2.6 | 6.1 | 0.00 | 0.00 | 0.00 | 26 | 1014.3 |
| 20260506175336 | 77 | 235 | 0.9 | 6.1 | 0.00 | 0.00 | 0.00 | 26 | 1014.3 |
| 20260506174348 | 76 | 328 | 0.9 | 4.3 | 0.00 | 0.00 | 0.00 | 27 | 1014.4 |
| 20260506173335 | 75 | 327 | 2.6 | 5.2 | 0.00 | 0.00 | 0.00 | 28 | 1014.4 |
| 20260506172342 | 76 | 252 | 4.3 | 7.8 | 0.00 | 0.00 | 0.00 | 28 | 1014.4 |
| 20260506171330 | 75 | 307 | 0.0 | 2.6 | 0.00 | 0.00 | 0.00 | 28 | 1014.4 |
| 20260506170358 | 75 | 319 | 0.9 | 6.1 | 0.00 | 0.00 | 0.00 | 29 | 1014.4 |
| 20260506165328 | 74 | 271 | 0.9 | 5.2 | 0.00 | 0.00 | 0.00 | 29 | 1014.3 |
| 20260506164335 | 74 | 105 | 0.9 | 5.2 | 0.00 | 0.00 | 0.00 | 29 | 1014.3 |
| 20260506163342 | 74 | 279 | 0.9 | 6.1 | 0.00 | 0.00 | 0.00 | 30 | 1014.3 |
| 20260506162330 | 74 | 148 | 2.6 | 5.2 | 0.00 | 0.00 | 0.00 | 30 | 1014.2 |
| 20260506161343 | 74 | 202 | 1.7 | 5.2 | 0.00 | 0.00 | 0.00 | 30 | 1014.2 |
| 20260506160331 | 74 | 253 | 1.7 | 4.3 | 0.00 | 0.00 | 0.00 | 30 | 1014.2 |
| 20260506155340 | 73 | 302 | 1.7 | 3.5 | 0.00 | 0.00 | 0.00 | 31 | 1014.2 |
| 20260506154331 | 72 | 323 | 0.0 | 2.6 | 0.00 | 0.00 | 0.00 | 32 | 1014.2 |
| 20260506153340 | 72 | 32 | 0.9 | 4.3 | 0.00 | 0.00 | 0.00 | 32 | 1014.2 |
| 20260506152329 | 71 | 23 | 0.9 | 4.3 | 0.00 | 0.00 | 0.00 | 32 | 1014.2 |
| 20260506151336 | 71 | 345 | 0.0 | 4.3 | 0.00 | 0.00 | 0.00 | 34 | 1014.2 |
| 20260506150403 | 70 | 326 | 0.9 | 2.6 | 0.00 | 0.00 | 0.00 | 35 | 1014.3 |
| 20260506145333 | 69 | 337 | 0.9 | 1.7 | 0.00 | 0.00 | 0.00 | 35 | 1014.3 |
| 20260506144342 | 69 | 303 | 0.0 | 3.5 | 0.00 | 0.00 | 0.00 | 36 | 1014.2 |
| 20260506143328 | 68 | 355 | 0.0 | 0.0 | 0.00 | 0.00 | 0.00 | 37 | 1014.2 |
| 20260506142336 | 67 | 63 | 0.0 | 0.0 | 0.00 | 0.00 | 0.00 | 40 | 1014.0 |
| 20260506141328 | 66 | 67 | 0.0 | 0.0 | 0.00 | 0.00 | 0.00 | 42 | 1013.9 |
| 20260506140336 | 65 | 79 | 0.0 | 1.7 | 0.00 | 0.00 | 0.00 | 45 | 1013.8 |
| 20260506135343 | 63 | 102 | 0.0 | 0.0 | 0.00 | 0.00 | 0.00 | 48 | 1013.5 |
| 20260506134336 | 62 | 149 | 0.0 | 0.0 | 0.00 | 0.00 | 0.00 | 50 | 1013.4 |
| 20260506133403 | 60 | 148 | 0.0 | 0.0 | 0.00 | 0.00 | 0.00 | 53 | 1013.3 |
| 20260506132350 | 58 | 170 | 0.0 | 0.0 | 0.00 | 0.00 | 0.00 | 57 | 1013.3 |
| 20260506131337 | 57 | 170 | 0.0 | 0.0 | 0.00 | 0.00 | 0.00 | 56 | 1013.2 |
| 20260506130345 | 57 | 170 | 0.0 | 0.0 | 0.00 | 0.00 | 0.00 | 55 | 1013.0 |
| 20260506125337 | 57 | 246 | 0.0 | 0.0 | 0.00 | 0.00 | 0.00 | 55 | 1013.0 |
| 20260506124327 | 57 | 246 | 0.0 | 0.0 | 0.00 | 0.00 | 0.00 | 56 | 1012.9 |
| 20260506123336 | 57 | 246 | 0.0 | 0.9 | 0.00 | 0.00 | 0.00 | 57 | 1012.8 |
| 20260506122328 | 57 | 246 | 0.0 | 0.0 | 0.00 | 0.00 | 0.00 | 55 | 1012.6 |
| 20260506121335 | 57 | 246 | 0.0 | 0.0 | 0.00 | 0.00 | 0.00 | 55 | 1012.5 |
| 20260506120345 | 58 | 246 | 0.0 | 0.0 | 0.00 | 0.00 | 0.00 | 54 | 1012.5 |
| 20260506115332 | 58 | 246 | 0.0 | 0.0 | 0.00 | 0.00 | 0.00 | 53 | 1012.5 |
| 20260506114343 | 58 | 246 | 0.0 | 0.0 | 0.00 | 0.00 | 0.00 | 53 | 1012.5 |
| 20260506113330 | 58 | 246 | 0.0 | 0.0 | 0.00 | 0.00 | 0.00 | 52 | 1012.5 |
| 20260506112339 | 58 | 246 | 0.0 | 0.0 | 0.00 | 0.00 | 0.00 | 52 | 1012.4 |
| 20260506111345 | 59 | 246 | 0.0 | 0.0 | 0.00 | 0.00 | 0.00 | 52 | 1012.4 |
| 20260506110338 | 59 | 246 | 0.0 | 0.0 | 0.00 | 0.00 | 0.00 | 52 | 1012.3 |
| 20260506105326 | 59 | 246 | 0.0 | 0.0 | 0.00 | 0.00 | 0.00 | 51 | 1012.3 |
| 20260506104334 | 59 | 246 | 0.0 | 0.0 | 0.00 | 0.00 | 0.00 | 50 | 1012.2 |
| 20260506103342 | 60 | 246 | 0.0 | 0.0 | 0.00 | 0.00 | 0.00 | 49 | 1012.2 |
| 20260506102334 | 60 | 246 | 0.0 | 0.0 | 0.00 | 0.00 | 0.00 | 49 | 1012.1 |
| 20260506101341 | 61 | 246 | 0.0 | 0.0 | 0.00 | 0.00 | 0.00 | 47 | 1011.9 |
| 20260506100330 | 61 | 246 | 0.0 | 0.0 | 0.00 | 0.00 | 0.00 | 46 | 1011.9 |
| 20260506095339 | 61 | 246 | 0.0 | 0.0 | 0.00 | 0.00 | 0.00 | 46 | 1011.9 |
| 20260506094330 | 62 | 246 | 0.0 | 0.0 | 0.00 | 0.00 | 0.00 | 45 | 1011.8 |
| 20260506093338 | 62 | 230 | 0.0 | 0.0 | 0.00 | 0.00 | 0.00 | 43 | 1011.7 |
| 20260506092345 | 63 | 230 | 0.0 | 0.0 | 0.00 | 0.00 | 0.00 | 42 | 1011.7 |
| 20260506091352 | 63 | 230 | 0.0 | 0.0 | 0.00 | 0.00 | 0.00 | 42 | 1011.7 |
| 20260506090342 | 64 | 230 | 0.0 | 0.0 | 0.00 | 0.00 | 0.00 | 41 | 1011.6 |
| 20260506085330 | 64 | 230 | 0.0 | 0.0 | 0.00 | 0.00 | 0.00 | 40 | 1011.5 |
| 20260506084336 | 65 | 242 | 0.0 | 0.0 | 0.00 | 0.00 | 0.00 | 39 | 1011.4 |
| 20260506083404 | 65 | 338 | 0.0 | 0.9 | 0.00 | 0.00 | 0.00 | 39 | 1011.6 |
| 20260506082332 | 66 | 256 | 0.0 | 0.0 | 0.00 | 0.00 | 0.00 | 37 | 1011.4 |
| 20260506081343 | 66 | 256 | 0.0 | 3.5 | 0.00 | 0.00 | 0.00 | 37 | 1011.4 |
| 20260506080331 | 67 | 229 | 0.0 | 5.2 | 0.00 | 0.00 | 0.00 | 36 | 1011.4 |
| 20260506073338 | 67 | 254 | 0.9 | 2.6 | 0.00 | 0.00 | 0.00 | 35 | 1011.4 |
| 20260506072325 | 67 | 273 | 1.7 | 6.1 | 0.00 | 0.00 | 0.00 | 35 | 1011.4 |
| 20260506071334 | 68 | 270 | 1.7 | 5.2 | 0.00 | 0.00 | 0.00 | 34 | 1011.3 |
| 20260506070340 | 68 | 266 | 3.5 | 8.7 | 0.00 | 0.00 | 0.00 | 34 | 1011.2 |
| 20260506062334 | 69 | 283 | 1.7 | 6.1 | 0.00 | 0.00 | 0.00 | 33 | 1011.0 |
| 20260506061325 | 69 | 263 | 3.5 | 6.1 | 0.00 | 0.00 | 0.00 | 32 | 1011.0 |
| 20260506060333 | 69 | 273 | 0.9 | 3.5 | 0.00 | 0.00 | 0.00 | 32 | 1010.9 |
| 20260506051336 | 70 | 283 | 0.9 | 8.7 | 0.00 | 0.00 | 0.00 | 31 | 1010.7 |
| 20260506050327 | 70 | 279 | 1.7 | 7.8 | 0.00 | 0.00 | 0.00 | 31 | 1010.5 |
| 20260506044403 | 70 | 317 | 1.7 | 6.1 | 0.00 | 0.00 | 0.00 | 30 | 1010.4 |
| 20260506043330 | 70 | 265 | 3.5 | 7.0 | 0.00 | 0.00 | 0.00 | 30 | 1010.3 |
| 20260506042338 | 71 | 196 | 2.6 | 7.0 | 0.00 | 0.00 | 0.00 | 30 | 1010.3 |
| 20260506041330 | 71 | 270 | 0.9 | 7.8 | 0.00 | 0.00 | 0.00 | 29 | 1010.1 |
| 20260506040338 | 71 | 233 | 4.3 | 8.7 | 0.00 | 0.00 | 0.00 | 29 | 1010.0 |
| 20260506035327 | 71 | 226 | 0.0 | 3.5 | 0.00 | 0.00 | 0.00 | 28 | 1009.9 |
| 20260506034340 | 72 | 228 | 0.9 | 5.2 | 0.00 | 0.00 | 0.00 | 28 | 1009.8 |
| 20260506033329 | 72 | 269 | 0.9 | 9.6 | 0.00 | 0.00 | 0.00 | 27 | 1009.6 |
| 20260506032355 | 72 | 256 | 6.1 | 11.3 | 0.00 | 0.00 | 0.00 | 27 | 1009.5 |
| 20260506031343 | 72 | 257 | 3.5 | 8.7 | 0.00 | 0.00 | 0.00 | 27 | 1009.3 |
| 20260506030335 | 72 | 270 | 3.5 | 7.8 | 0.00 | 0.00 | 0.00 | 27 | 1009.2 |
| 20260506025344 | 73 | 280 | 2.6 | 10.4 | 0.00 | 0.00 | 0.00 | 26 | 1009.0 |
| 20260506024331 | 73 | 285 | 0.9 | 8.7 | 0.00 | 0.00 | 0.00 | 27 | 1009.0 |
| 20260506023338 | 73 | 268 | 1.7 | 9.6 | 0.00 | 0.00 | 0.00 | 26 | 1008.7 |
| 20260506022330 | 73 | 234 | 3.5 | 10.4 | 0.00 | 0.00 | 0.00 | 26 | 1008.7 |
| 20260506021337 | 74 | 232 | 3.5 | 11.3 | 0.00 | 0.00 | 0.00 | 25 | 1008.5 |